[[{"header":{"parameterUnit":"m.s-1","parameterCategory":2,"la1":30.2991,"la2":30.254,"lo1":-89.0895,"lo2":-89.0444,"dy":0.0017,"dx":0.0017,"nx":28,"ny":28,"refTime":"2025-03-24T09:00:00:Z","depth":"0","parameterNumber":2,"parameterNumberName":"U-component_of_CURRENTS"},"data":[0,0,0,0,0,0,0,0,0,0,0,0,0,0,0,0,0,0,0,0,0,0,0,0,0,0,0,0,0,0,0,0,0,0,0,0,0,0,0,0,0,0,0,0,0,0,0,0,0,0,0,0,0,0,0,0,0,0,-0.1894,-0.1895,0,-0.193,-0.193,-0.1931,-0.1911,-0.191,-0.1909,-0.1908,-0.1825,-0.1823,-0.1822,0,0,0,0,0,0,0,0,0,0,0,0,0,-0.1805,-0.1806,-0.1894,-0.1895,-0.1895,-0.193,-0.193,-0.1931,-0.1911,-0.191,-0.1909,-0.1908,-0.1825,-0.1824,-0.1822,0,0,0,0,0,0,0,0,0,0,0,0,0,-0.184,-0.1807,-0.1894,-0.1892,-0.1892,-0.193,-0.193,-0.1931,-0.1911,-0.191,-0.1909,-0.1908,-0.1826,-0.1824,-0.1822,-0.183,0,0,-0.1815,-0.1814,0,0,0,0,0,0,0,0,-0.1838,-0.1843,-0.1891,-0.1892,-0.1892,-0.1917,-0.1869,-0.1892,-0.1911,-0.1901,-0.1908,-0.1907,-0.1847,-0.1843,-0.185,-0.1826,-0.1823,-0.1814,-0.1813,-0.1812,-0.1811,0,0,0,0,0,0,0,-0.1836,-0.1841,-0.1906,-0.1892,-0.1893,-0.1888,-0.1891,-0.1873,-0.1876,-0.1902,-0.1901,-0.191,-0.1846,-0.1853,-0.1848,-0.1822,-0.1815,-0.1812,-0.1811,-0.181,-0.1826,-0.1828,0,0,0,0,0,0,-0.1838,-0.184,-0.1905,-0.1907,-0.1865,-0.1891,-0.1894,-0.1908,-0.1879,-0.1875,-0.1911,-0.1909,-0.1857,-0.1851,-0.1845,-0.1888,-0.1812,-0.181,-0.1809,-0.1825,-0.1827,-0.1829,0,0,0,0,0,0,-0.1836,-0.1844,-0.1903,-0.1875,-0.1883,-0.1894,-0.1909,-0.191,-0.1911,-0.1887,-0.188,-0.1911,-0.1856,-0.1848,-0.1847,-0.1883,-0.1809,-0.1807,-0.1822,-0.1825,-0.1828,-0.1951,0,0,0,0,0,0,-0.1834,-0.1843,-0.1841,-0.1876,-0.1885,-0.1928,-0.191,-0.1911,-0.1919,-0.1917,-0.1885,-0.1877,-0.1855,-0.1851,-0.1845,-0.1878,-0.1805,-0.182,-0.1824,-0.1827,-0.1944,-0.1957,-0.1968,0,0,0,0,0,-0.183,-0.1833,-0.1841,-0.1849,-0.1887,-0.1929,-0.1933,-0.1935,-0.192,-0.1929,-0.1919,-0.1877,-0.1868,-0.1851,-0.1843,-0.1877,-0.1818,-0.1823,-0.1827,-0.1939,-0.1955,-0.1968,0,0,0,0,0,0,-0.1779,-0.1833,-0.1842,-0.1856,-0.1894,-0.1927,-0.1929,-0.1936,-0.1937,-0.1927,-0.1899,-0.1891,-0.1901,-0.1873,-0.1855,-0.1892,-0.1836,-0.1839,-0.1925,-0.1939,-0.1951,-0.1929,-0.1803,0,0,0,0,0,-0.1774,-0.1793,-0.1846,-0.1854,-0.1876,-0.1904,-0.1916,-0.1927,-0.1939,-0.1938,-0.1925,-0.1912,-0.1915,-0.1913,-0.1899,-0.192,-0.1876,-0.1936,-0.1949,-0.1959,-0.1937,-0.195,-0.1961,-0.1842,-0.1842,-0.1842,0,0,-0.1751,-0.1785,-0.1791,-0.1845,-0.187,-0.1914,-0.1907,-0.1934,-0.1966,-0.1927,-0.195,-0.1943,-0.1926,-0.1956,-0.1958,-0.1937,-0.1968,-0.1964,-0.1973,-0.1944,-0.1956,-0.1967,-0.1977,-0.1845,-0.1844,-0.1844,0,0,-0.1733,-0.1755,-0.1776,-0.1821,-0.1874,-0.1904,-0.1916,-0.1962,-0.1975,-0.2008,-0.1995,-0.202,-0.2008,-0.2029,-0.2032,-0.2099,-0.2024,-0.2087,-0.2139,-0.2155,-0.2164,-0.2172,-0.2121,-0.2123,-0.2103,-0.2104,-0.2104,0,-0.17,-0.1746,-0.1785,-0.1832,-0.187,-0.1905,-0.1949,-0.1978,-0.2016,-0.2038,-0.2022,-0.2057,-0.205,-0.2105,-0.2133,-0.2128,-0.2088,-0.2091,-0.2171,-0.2178,-0.2184,-0.2128,-0.2129,-0.211,-0.2109,-0.2109,-0.2108,0,-0.1719,-0.1759,-0.1777,-0.1855,-0.19,-0.194,-0.2007,-0.2043,-0.2064,-0.2097,-0.2144,-0.2157,-0.2174,-0.2197,-0.2182,-0.2235,-0.2175,-0.218,-0.2135,-0.2203,-0.214,-0.2139,-0.2119,-0.2117,-0.2115,-0.2113,0,0,-0.1632,-0.1764,-0.1768,-0.1822,-0.192,-0.1961,-0.2029,-0.2107,-0.2142,-0.2189,-0.2232,-0.2283,-0.228,-0.2282,-0.2285,-0.231,-0.2332,-0.226,-0.2258,-0.2206,-0.2305,-0.2088,-0.2064,-0.235,-0.2351,-0.2351,-0.2239,0,-0.1632,-0.1725,-0.1792,-0.1876,-0.1937,-0.2014,-0.2074,-0.2147,-0.2194,-0.2241,-0.2288,-0.2314,-0.2317,-0.2323,-0.2357,-0.2328,-0.2334,-0.2357,-0.2244,-0.2239,-0.2039,-0.2059,-0.1942,-0.1817,-0.2237,-0.2237,-0.2237,0,-0.1626,-0.1699,-0.1785,-0.1915,-0.1945,-0.1995,-0.2101,-0.2158,-0.2245,-0.2277,-0.2332,-0.2343,-0.2388,-0.2374,-0.2372,-0.2378,-0.2337,-0.232,-0.2316,-0.2061,-0.202,-0.1818,-0.1797,-0.1814,-0.2234,-0.2234,-0.2234,0,-0.1558,-0.1689,-0.1758,-0.1805,-0.1952,-0.1996,-0.2059,-0.216,-0.2194,-0.2282,-0.2291,-0.2365,-0.2353,-0.2365,-0.2306,-0.2343,-0.2258,-0.2316,-0.2083,-0.2065,-0.1911,-0.1877,-0.1886,-0.2304,-0.2304,-0.2305,-0.2305,0,-0.1537,-0.1588,-0.173,-0.177,-0.1836,-0.1955,-0.2008,-0.2086,-0.2162,-0.2181,-0.2278,-0.2276,-0.2346,-0.2305,-0.2291,-0.2131,-0.2243,-0.2058,-0.2023,-0.1945,-0.1917,-0.1876,-0.1932,-0.23,-0.2301,-0.2302,-0.2303,0,-0.1448,-0.1545,-0.1625,-0.177,-0.1806,-0.1844,-0.1944,-0.1976,-0.2063,-0.2081,-0.2097,-0.218,-0.212,-0.2125,-0.2105,-0.2049,-0.1917,-0.1888,-0.1742,-0.1689,-0.1483,-0.1549,-0.1453,-0.1417,-0.1632,-0.1626,-0.1621,0,-0.1412,-0.1447,-0.1581,-0.1604,-0.166,-0.1731,-0.1768,-0.1896,-0.1921,-0.2,-0.1984,-0.1961,-0.1909,-0.1767,-0.1677,-0.1561,-0.1659,-0.1381,-0.1444,-0.1414,-0.1467,-0.1541,-0.1527,-0.1299,-0.1292,-0.1286,-0.1281,0,-0.132,-0.1361,-0.1422,-0.148,-0.1521,-0.157,-0.1632,-0.1646,-0.177,-0.1782,-0.1777,-0.1748,-0.1596,-0.1414,-0.123,-0.1184,-0.1344,-0.1247,-0.1303,-0.1245,-0.1246,-0.1211,-0.1401,-0.1228,-0.1233,-0.1237,-0.124,-0.1242,-0.1212,-0.1224,-0.1291,-0.1339,-0.1377,-0.1393,-0.1388,-0.1447,-0.1461,-0.1444,-0.1507,-0.1362,-0.1218,-0.0942,-0.0908,-0.0754,-0.0901,-0.0764,-0.0854,-0.0937,-0.0874,-0.0875,-0.0607,-0.0609,-0.061,-0.0612,-0.0613,0,-0.1079,-0.1109,-0.1141,-0.1185,-0.1172,-0.1245,-0.1277,-0.1246,-0.1207,-0.1158,-0.1102,-0.0825,-0.0659,-0.0583,-0.0425,-0.041,-0.0496,-0.0446,-0.0614,-0.0628,-0.069,-0.0647,-0.027,-0.027,-0.027,-0.027,-0.027,-0.027,-0.0999,-0.0989,-0.103,-0.0979,-0.0993,-0.0937,-0.0933,-0.0894,-0.0837,-0.0641,-0.044,-0.0326,-0.0281,-0.0349,-0.0353,-0.0348,-0.0456,-0.0381,-0.0485,-0.063,-0.0672,-0.0712,-0.0686,-0.0324,-0.0324,-0.0387,-0.0388,-0.0389]},{"header":{"parameterUnit":"m.s-1","parameterCategory":2,"la1":30.2991,"la2":30.254,"lo1":-89.0895,"lo2":-89.0444,"dy":0.0017,"dx":0.0017,"nx":28,"ny":28,"refTime":"2025-03-24T09:00:00:Z","depth":"0","parameterNumber":3,"parameterNumberName":"V-component_of_CURRENTS"},"data":[0,0,0,0,0,0,0,0,0,0,0,0,0,0,0,0,0,0,0,0,0,0,0,0,0,0,0,0,0,0,0,0,0,0,0,0,0,0,0,0,0,0,0,0,0,0,0,0,0,0,0,0,0,0,0,0,0,0,0.0249,0.025,0,0.0348,0.0349,0.035,0.0395,0.0395,0.0395,0.0395,0.0485,0.0488,0.049,0,0,0,0,0,0,0,0,0,0,0,0,0,0.0152,0.0153,0.0249,0.025,0.0252,0.0348,0.0349,0.035,0.0395,0.0395,0.0395,0.0395,0.0485,0.0487,0.0491,0,0,0,0,0,0,0,0,0,0,0,0,0,0.0217,0.0153,0.0249,0.0285,0.029,0.0347,0.0349,0.0351,0.0395,0.0395,0.0395,0.0395,0.0484,0.0487,0.0491,0.0518,0,0,0.0502,0.0504,0,0,0,0,0,0,0,0,0.0213,0.022,0.0279,0.0283,0.0288,0.0359,0.0348,0.0406,0.0396,0.0356,0.0395,0.0395,0.0442,0.0449,0.0469,0.0522,0.0526,0.0503,0.0505,0.0507,0.0508,0,0,0,0,0,0,0,0.0208,0.0216,0.0289,0.028,0.0286,0.0314,0.0323,0.0359,0.0399,0.0359,0.0363,0.0373,0.0445,0.0465,0.0471,0.0527,0.0503,0.0506,0.0508,0.051,0.063,0.0631,0,0,0,0,0,0,0.0193,0.0212,0.0285,0.0291,0.0249,0.0316,0.0326,0.0336,0.0399,0.0408,0.0373,0.0375,0.0459,0.0467,0.0475,0.0498,0.0507,0.051,0.0512,0.0629,0.0631,0.0632,0,0,0,0,0,0,0.0191,0.0199,0.0281,0.0254,0.0266,0.0318,0.033,0.0339,0.0358,0.0409,0.0419,0.0382,0.0459,0.0469,0.0507,0.0502,0.0512,0.0515,0.0628,0.063,0.0631,0.0552,0,0,0,0,0,0,0.0187,0.0197,0.02,0.0253,0.0267,0.0305,0.033,0.0341,0.0364,0.0367,0.042,0.0429,0.046,0.0501,0.051,0.0507,0.0518,0.0627,0.0629,0.0631,0.0554,0.0551,0.0548,0,0,0,0,0,0.0183,0.0187,0.02,0.0209,0.027,0.0305,0.0315,0.0351,0.0365,0.0368,0.041,0.0427,0.0519,0.0504,0.0515,0.0513,0.0626,0.0628,0.063,0.0555,0.0551,0.0548,0,0,0,0,0,0,0.0158,0.0194,0.0209,0.0226,0.0257,0.0312,0.0322,0.0348,0.0385,0.0386,0.0435,0.0447,0.0482,0.0515,0.0497,0.0558,0.0578,0.0582,0.0516,0.0514,0.0511,0.0483,0.0521,0,0,0,0,0,0.0151,0.0154,0.0199,0.0213,0.0225,0.0272,0.0292,0.0314,0.0355,0.0371,0.041,0.0457,0.0501,0.0518,0.0563,0.059,0.0591,0.0601,0.0598,0.0595,0.0584,0.0586,0.0581,0.0638,0.0638,0.0638,0,0,0.0146,0.0165,0.017,0.0206,0.0233,0.0243,0.0283,0.0305,0.0315,0.0375,0.04,0.0449,0.051,0.0542,0.056,0.0564,0.0577,0.0598,0.0594,0.0584,0.0587,0.0581,0.0576,0.064,0.064,0.0639,0,0,0.013,0.0153,0.0146,0.0164,0.0194,0.0221,0.0223,0.0272,0.0294,0.0328,0.0376,0.042,0.0485,0.0523,0.0553,0.0565,0.0567,0.0584,0.0539,0.0541,0.0535,0.053,0.05,0.0492,0.0577,0.0576,0.0576,0,0.0122,0.0121,0.0152,0.0148,0.0157,0.0205,0.02,0.0231,0.0286,0.0296,0.0324,0.0418,0.0476,0.0506,0.0521,0.0555,0.0543,0.0538,0.0532,0.0527,0.0523,0.0494,0.0487,0.0573,0.0573,0.0574,0.0574,0,0.0098,0.0097,0.0095,0.01,0.0113,0.0118,0.0156,0.0172,0.0207,0.0237,0.0278,0.0357,0.0406,0.0441,0.049,0.0496,0.049,0.0526,0.0526,0.0511,0.0483,0.0477,0.0568,0.0569,0.057,0.0571,0,0,0.0074,0.0076,0.0072,0.006,0.0084,0.0089,0.01,0.0119,0.0112,0.0175,0.0169,0.0274,0.0309,0.0347,0.0409,0.0424,0.0398,0.0458,0.046,0.0401,0.0365,0.0451,0.0453,0.0422,0.0421,0.042,0.0346,0,0.0044,0.0015,0.0029,0.0003,-0.0009,0.0024,0.0024,0.0046,0.0076,0.0081,0.0155,0.0187,0.0274,0.0296,0.0323,0.0384,0.0383,0.0413,0.0412,0.0411,0.0468,0.0451,0.0508,0.0455,0.034,0.0339,0.0339,0,0.0009,-0.0009,-0.0041,-0.0061,-0.0063,-0.0068,-0.0077,-0.0067,-0.0045,-0.0022,0.0012,0.0064,0.0109,0.0186,0.0242,0.025,0.03,0.0342,0.0341,0.0445,0.0488,0.046,0.0449,0.055,0.033,0.033,0.0331,0,-0.0038,-0.0061,-0.0093,-0.0098,-0.0106,-0.0116,-0.0114,-0.01,-0.0104,-0.0089,-0.0096,-0.0047,-0.0015,0.0045,0.017,0.0187,0.0217,0.025,0.036,0.0364,0.0428,0.0441,0.0496,0.0272,0.0272,0.0273,0.0273,0,-0.0081,-0.0109,-0.012,-0.0139,-0.0185,-0.0167,-0.0204,-0.0194,-0.0194,-0.021,-0.0149,-0.0151,-0.0045,0.0002,0.01,0.0216,0.0161,0.034,0.0358,0.0404,0.0416,0.0522,0.0558,0.027,0.027,0.0271,0.0271,0,-0.0121,-0.0129,-0.0171,-0.0194,-0.0206,-0.0234,-0.0256,-0.028,-0.0268,-0.0292,-0.0289,-0.0247,-0.0177,-0.007,0.0026,0.0139,0.0309,0.0291,0.033,0.0357,0.0572,0.0601,0.065,0.0735,0.0368,0.037,0.0371,0,-0.0141,-0.0164,-0.0213,-0.0243,-0.0253,-0.0289,-0.0315,-0.0315,-0.0334,-0.0338,-0.0355,-0.0306,-0.0249,-0.0088,0.0105,0.0255,0.0358,0.0414,0.0489,0.0587,0.063,0.0642,0.0711,0.0513,0.0516,0.0518,0.052,0,-0.017,-0.0184,-0.0217,-0.0286,-0.0325,-0.0368,-0.0396,-0.0428,-0.0423,-0.0433,-0.0426,-0.0386,-0.0213,-0.0001,0.0226,0.0337,0.0512,0.0464,0.0554,0.0744,0.0768,0.0858,0.053,0.0538,0.0536,0.0535,0.0534,0.0533,-0.018,-0.0212,-0.0255,-0.0323,-0.0371,-0.0418,-0.0439,-0.0462,-0.0485,-0.0447,-0.0441,-0.029,-0.0011,0.032,0.0403,0.0699,0.0658,0.081,0.0826,0.0818,0.0955,0.067,0.0727,0.0726,0.0726,0.0725,0.0724,0,-0.0187,-0.0224,-0.0287,-0.0355,-0.0405,-0.0423,-0.0469,-0.0458,-0.046,-0.0383,-0.0323,0.0084,0.0336,0.0594,0.0948,0.1065,0.1083,0.1125,0.1141,0.1189,0.0921,0.0989,0.1123,0.1123,0.1123,0.1123,0.1123,0.1123,-0.0185,-0.0242,-0.0283,-0.0364,-0.0402,-0.0431,-0.0444,-0.0408,-0.0335,-0.0108,0.0162,0.0358,0.0775,0.1068,0.1325,0.1354,0.146,0.1432,0.1489,0.1296,0.1267,0.124,0.1314,0.1514,0.1514,0.1772,0.1775,0.1777]}],[{"header":{"parameterUnit":"m.s-1","parameterCategory":2,"la1":30.2991,"la2":30.254,"lo1":-89.0895,"lo2":-89.0444,"dy":0.0017,"dx":0.0017,"nx":28,"ny":28,"refTime":"2025-03-24T09:00:00:Z","depth":"2","parameterNumber":2,"parameterNumberName":"U-component_of_CURRENTS"},"data":[0,0,0,0,0,0,0,0,0,0,0,0,0,0,0,0,0,0,0,0,0,0,0,0,0,0,0,0,0,0,0,0,0,0,0,0,0,0,0,0,0,0,0,0,0,0,0,0,0,0,0,0,0,0,0,0,0,0,-0.2,-0.2,0,-0.2017,-0.2017,-0.2017,-0.2018,-0.2018,-0.2018,-0.2018,-0.1974,-0.1973,-0.1972,0,0,0,0,0,0,0,0,0,0,0,0,0,-0.1965,-0.1966,-0.2,-0.2,-0.2001,-0.2017,-0.2017,-0.2017,-0.2018,-0.2018,-0.2018,-0.2018,-0.1974,-0.1973,-0.1972,0,0,0,0,0,0,0,0,0,0,0,0,0,-0.1981,-0.1966,-0.2,-0.2003,-0.2004,-0.2017,-0.2017,-0.2018,-0.2018,-0.2018,-0.2018,-0.2018,-0.1974,-0.1973,-0.1971,-0.1966,0,0,-0.1967,-0.1966,0,0,0,0,0,0,0,0,-0.198,-0.1982,-0.2003,-0.2003,-0.2004,-0.2016,-0.1989,-0.1998,-0.2018,-0.2012,-0.2018,-0.2018,-0.1983,-0.198,-0.1984,-0.1964,-0.1962,-0.1967,-0.1966,-0.1965,-0.1964,0,0,0,0,0,0,0,-0.1979,-0.1981,-0.2006,-0.2003,-0.2004,-0.2003,-0.2005,-0.1991,-0.1997,-0.2013,-0.2013,-0.2016,-0.1982,-0.1986,-0.1983,-0.1962,-0.1967,-0.1965,-0.1964,-0.1964,-0.1959,-0.196,0,0,0,0,0,0,-0.1978,-0.198,-0.2006,-0.2007,-0.1992,-0.2004,-0.2006,-0.2012,-0.1999,-0.1997,-0.2016,-0.2016,-0.1989,-0.1985,-0.1981,-0.1994,-0.1965,-0.1963,-0.1963,-0.1958,-0.1959,-0.196,0,0,0,0,0,0,-0.1977,-0.198,-0.2005,-0.1994,-0.1997,-0.2005,-0.2011,-0.2012,-0.2028,-0.2002,-0.1999,-0.2032,-0.1988,-0.1984,-0.1984,-0.1991,-0.1963,-0.1961,-0.1957,-0.1959,-0.196,-0.2006,0,0,0,0,0,0,-0.1976,-0.198,-0.1976,-0.1994,-0.1998,-0.2031,-0.2012,-0.2013,-0.2029,-0.203,-0.2014,-0.2009,-0.1988,-0.1986,-0.1982,-0.1989,-0.196,-0.1956,-0.1958,-0.1959,-0.2004,-0.2009,-0.2013,0,0,0,0,0,-0.1975,-0.1962,-0.1976,-0.1979,-0.1995,-0.2032,-0.2035,-0.2038,-0.2031,-0.2049,-0.2034,-0.201,-0.1993,-0.1986,-0.1981,-0.1987,-0.1955,-0.1957,-0.1959,-0.2001,-0.2008,-0.2013,0,0,0,0,0,0,-0.1948,-0.1962,-0.1977,-0.1971,-0.2013,-0.2033,-0.2043,-0.2049,-0.2053,-0.2045,-0.2022,-0.2017,-0.2024,-0.2001,-0.1994,-0.1991,-0.197,-0.1971,-0.2004,-0.2009,-0.2014,-0.1959,-0.1959,0,0,0,0,0,-0.1943,-0.1939,-0.1975,-0.198,-0.2003,-0.203,-0.2041,-0.2049,-0.2057,-0.206,-0.2053,-0.2036,-0.2027,-0.2015,-0.201,-0.2002,-0.1994,-0.2003,-0.2008,-0.2012,-0.1965,-0.2012,-0.2017,-0.1966,-0.1966,-0.1966,0,0,-0.1946,-0.1943,-0.195,-0.1974,-0.2007,-0.2011,-0.2037,-0.2065,-0.2046,-0.2052,-0.2036,-0.2062,-0.2033,-0.2034,-0.2033,-0.2012,-0.2026,-0.2015,-0.2018,-0.1967,-0.2015,-0.202,-0.2024,-0.1967,-0.1967,-0.1967,0,0,-0.1918,-0.1951,-0.1929,-0.1955,-0.1989,-0.201,-0.2024,-0.2062,-0.2064,-0.2078,-0.2066,-0.2091,-0.2088,-0.2061,-0.2045,-0.2068,-0.2063,-0.2083,-0.2045,-0.2095,-0.2099,-0.2102,-0.2114,-0.2118,-0.2072,-0.2072,-0.2072,0,-0.1903,-0.1898,-0.1938,-0.1917,-0.1932,-0.2008,-0.1999,-0.2009,-0.2035,-0.2045,-0.2079,-0.2099,-0.2088,-0.2055,-0.2058,-0.2074,-0.2097,-0.2029,-0.2101,-0.2104,-0.2107,-0.2118,-0.2122,-0.2074,-0.2074,-0.2074,-0.2073,0,-0.1865,-0.186,-0.1866,-0.186,-0.1875,-0.1906,-0.1927,-0.1948,-0.1991,-0.2019,-0.2056,-0.2075,-0.2084,-0.2099,-0.2075,-0.2079,-0.2089,-0.2119,-0.2086,-0.2115,-0.2125,-0.2128,-0.2078,-0.2077,-0.2076,-0.2075,0,0,-0.1844,-0.1834,-0.184,-0.1835,-0.1857,-0.1876,-0.185,-0.1883,-0.1898,-0.1957,-0.1981,-0.1985,-0.2051,-0.2031,-0.2041,-0.2058,-0.2107,-0.2085,-0.2086,-0.2092,-0.2202,-0.1991,-0.1974,-0.2175,-0.2176,-0.2176,-0.2207,0,-0.1818,-0.1765,-0.1766,-0.1755,-0.1754,-0.1794,-0.1782,-0.1804,-0.1865,-0.1916,-0.1956,-0.2005,-0.2007,-0.2047,-0.2062,-0.2102,-0.2114,-0.2092,-0.2172,-0.2172,-0.1979,-0.1969,-0.1828,-0.1823,-0.221,-0.221,-0.2211,0,-0.1772,-0.1759,-0.172,-0.1722,-0.1733,-0.1728,-0.1766,-0.1769,-0.1828,-0.188,-0.1932,-0.1994,-0.1999,-0.2038,-0.2083,-0.2082,-0.2119,-0.2153,-0.2157,-0.1926,-0.1963,-0.1853,-0.1814,-0.2216,-0.2215,-0.2215,-0.2214,0,-0.1748,-0.1723,-0.1699,-0.1701,-0.1712,-0.1706,-0.1734,-0.1775,-0.1794,-0.1871,-0.1923,-0.1972,-0.2012,-0.2068,-0.2082,-0.2122,-0.2137,-0.2222,-0.2057,-0.2044,-0.1907,-0.1878,-0.2251,-0.2251,-0.2251,-0.2251,-0.2251,0,-0.1712,-0.1701,-0.1695,-0.1701,-0.1699,-0.1709,-0.1733,-0.1761,-0.1818,-0.1843,-0.1921,-0.194,-0.203,-0.2042,-0.2082,-0.2021,-0.2141,-0.2005,-0.2022,-0.1917,-0.189,-0.2214,-0.2209,-0.2252,-0.2252,-0.2252,-0.2252,0,-0.1666,-0.1668,-0.1646,-0.167,-0.1679,-0.168,-0.1716,-0.1742,-0.1806,-0.183,-0.1853,-0.1928,-0.1921,-0.1943,-0.2012,-0.1987,-0.1984,-0.1938,-0.1762,-0.1752,-0.1877,-0.1875,-0.1801,-0.1793,-0.1787,-0.1781,-0.1777,0,-0.1617,-0.1603,-0.162,-0.161,-0.1622,-0.1637,-0.1653,-0.1722,-0.1725,-0.1801,-0.1794,-0.1815,-0.176,-0.1731,-0.1684,-0.1646,-0.1787,-0.1511,-0.1528,-0.1798,-0.1825,-0.1833,-0.1839,-0.1408,-0.1401,-0.1396,-0.1391,0,-0.1542,-0.1556,-0.1548,-0.155,-0.1556,-0.1556,-0.1573,-0.1572,-0.1635,-0.1641,-0.1629,-0.1608,-0.1531,-0.1399,-0.1302,-0.1289,-0.1498,-0.1384,-0.1747,-0.1496,-0.1417,-0.1447,-0.1469,-0.1339,-0.1344,-0.1348,-0.1351,-0.1353,-0.1483,-0.1447,-0.1456,-0.1441,-0.1452,-0.1446,-0.1419,-0.1427,-0.1413,-0.1385,-0.1428,-0.1351,-0.1324,-0.1089,-0.1003,-0.0945,-0.1084,-0.1104,-0.1129,-0.1159,-0.1059,-0.0967,-0.0787,-0.0789,-0.0791,-0.0792,-0.0794,0,-0.1394,-0.1371,-0.1347,-0.1328,-0.1302,-0.1358,-0.1333,-0.1284,-0.1212,-0.1199,-0.1143,-0.0999,-0.086,-0.0842,-0.0655,-0.0596,-0.0671,-0.0587,-0.0726,-0.0774,-0.0818,-0.0709,-0.034,-0.0339,-0.0338,-0.0338,0,0,-0.1345,-0.1285,-0.1261,-0.1176,-0.1172,-0.1115,-0.1081,-0.1027,-0.0977,-0.0886,-0.0837,-0.0869,-0.0837,-0.0638,-0.0541,-0.0417,-0.0609,-0.0379,-0.0737,-0.0951,-0.0995,-0.1093,-0.0973,0,0,0,0,0]},{"header":{"parameterUnit":"m.s-1","parameterCategory":2,"la1":30.2991,"la2":30.254,"lo1":-89.0895,"lo2":-89.0444,"dy":0.0017,"dx":0.0017,"nx":28,"ny":28,"refTime":"2025-03-24T09:00:00:Z","depth":"2","parameterNumber":3,"parameterNumberName":"V-component_of_CURRENTS"},"data":[0,0,0,0,0,0,0,0,0,0,0,0,0,0,0,0,0,0,0,0,0,0,0,0,0,0,0,0,0,0,0,0,0,0,0,0,0,0,0,0,0,0,0,0,0,0,0,0,0,0,0,0,0,0,0,0,0,0,-0.0173,-0.0172,0,-0.0075,-0.0073,-0.0072,-0.0018,-0.0018,-0.0018,-0.0018,0.0074,0.0077,0.0079,0,0,0,0,0,0,0,0,0,0,0,0,0,-0.0262,-0.0261,-0.0173,-0.0172,-0.0171,-0.0075,-0.0073,-0.0072,-0.0018,-0.0018,-0.0018,-0.0018,0.0074,0.0077,0.0079,0,0,0,0,0,0,0,0,0,0,0,0,0,-0.0199,-0.0261,-0.0173,-0.0133,-0.0128,-0.0075,-0.0073,-0.0071,-0.0018,-0.0018,-0.0018,-0.0018,0.0073,0.0076,0.008,0.0099,0,0,0.0091,0.0092,0,0,0,0,0,0,0,0,-0.0203,-0.0196,-0.014,-0.0136,-0.013,-0.0059,-0.0071,-0.0015,-0.0018,-0.0059,-0.0018,-0.0017,0.0029,0.0036,0.0055,0.0104,0.0107,0.0091,0.0093,0.0095,0.0096,0,0,0,0,0,0,0,-0.0207,-0.02,-0.0133,-0.0139,-0.0133,-0.0102,-0.0093,-0.006,-0.0017,-0.0055,-0.0051,-0.0042,0.0031,0.0052,0.0058,0.0109,0.0091,0.0094,0.0096,0.0098,0.0208,0.0209,0,0,0,0,0,0,-0.0224,-0.0204,-0.0137,-0.0131,-0.0168,-0.01,-0.0091,-0.0081,-0.0017,-0.0007,-0.0042,-0.0039,0.0046,0.0054,0.0061,0.0089,0.0095,0.0098,0.01,0.0208,0.0209,0.0209,0,0,0,0,0,0,-0.0226,-0.0219,-0.0141,-0.0166,-0.0153,-0.01,-0.0089,-0.008,-0.0059,-0.0006,0.0003,-0.0032,0.0046,0.0056,0.0093,0.0093,0.01,0.0103,0.0207,0.0208,0.0209,0.0144,0,0,0,0,0,0,-0.0229,-0.022,-0.0222,-0.0167,-0.0153,-0.0114,-0.0089,-0.0078,-0.0054,-0.005,0.0005,0.0014,0.0047,0.0088,0.0097,0.0098,0.0106,0.0206,0.0207,0.0209,0.0145,0.0142,0.014,0,0,0,0,0,-0.0233,-0.0242,-0.0223,-0.0215,-0.0157,-0.0114,-0.0104,-0.0064,-0.0054,-0.0046,-0.0006,0.0012,0.0104,0.0091,0.0102,0.0103,0.0205,0.0207,0.0208,0.0146,0.0143,0.0141,0,0,0,0,0,0,-0.0281,-0.0235,-0.0214,-0.0208,-0.0165,-0.0105,-0.0097,-0.0069,-0.0031,-0.003,0.0019,0.0031,0.0071,0.0098,0.0082,0.0144,0.0159,0.0163,0.0108,0.0106,0.0104,0.005,0.0109,0,0,0,0,0,-0.0293,-0.0287,-0.0232,-0.0226,-0.0207,-0.0152,-0.0132,-0.0104,-0.0061,-0.0044,-0.0004,0.0042,0.0088,0.0102,0.0151,0.0172,0.0212,0.0184,0.0182,0.018,0.0146,0.0228,0.0229,0.0215,0.0215,0.0215,0,0,-0.0305,-0.0284,-0.0277,-0.0235,-0.0199,-0.0189,-0.0139,-0.0112,-0.0109,-0.0041,-0.0024,0.0039,0.0097,0.0132,0.015,0.0149,0.0209,0.0182,0.0179,0.0146,0.023,0.0231,0.0232,0.0217,0.0216,0.0216,0,0,-0.0339,-0.0311,-0.0319,-0.0295,-0.0252,-0.0216,-0.0212,-0.0153,-0.0131,-0.0095,-0.0043,0.001,0.0076,0.0112,0.0139,0.0151,0.0205,0.0179,0.0109,0.019,0.0191,0.0192,0.0255,0.0262,0.0166,0.0165,0.0165,0,-0.0362,-0.036,-0.0313,-0.0322,-0.0308,-0.0237,-0.0243,-0.0213,-0.015,-0.0135,-0.01,0.0011,0.0062,0.0095,0.01,0.0142,0.0194,0.011,0.0184,0.0186,0.0189,0.0253,0.0262,0.0163,0.0163,0.0163,0.0163,0,-0.0398,-0.0401,-0.0404,-0.0392,-0.0374,-0.0361,-0.0316,-0.0295,-0.0249,-0.021,-0.0149,-0.0063,-0.0004,0.0033,0.0064,0.0104,0.014,0.0182,0.0182,0.0186,0.0254,0.0264,0.0158,0.0159,0.016,0.0161,0,0,-0.0433,-0.043,-0.0431,-0.044,-0.0408,-0.0395,-0.0396,-0.0362,-0.0358,-0.0283,-0.026,-0.0174,-0.0116,-0.0082,-0.0015,0.0039,0.0112,0.01,0.0106,0.0144,0.0284,0.0237,0.0244,0.0176,0.0177,0.0178,0.0328,0,-0.047,-0.0504,-0.0489,-0.0516,-0.0524,-0.048,-0.0483,-0.0453,-0.0401,-0.0362,-0.0274,-0.0215,-0.0163,-0.0118,-0.0059,0.0085,0.0134,0.0066,0.0288,0.0293,0.0237,0.0252,0.025,0.0377,0.0338,0.034,0.0341,0,-0.0512,-0.0526,-0.056,-0.0574,-0.0572,-0.058,-0.0562,-0.0555,-0.0498,-0.0455,-0.0394,-0.0313,-0.0229,-0.017,0.0027,-0.0012,0.0107,0.0211,0.0221,0.0194,0.0264,0.0367,0.0397,0.0359,0.0358,0.0356,0.0355,0,-0.0553,-0.0579,-0.0606,-0.0611,-0.0612,-0.0622,-0.0614,-0.058,-0.0572,-0.051,-0.0476,-0.0368,-0.0277,-0.0131,0.0065,0.0061,0.0294,0.0332,0.0392,0.0392,0.0435,0.0434,0.045,0.045,0.045,0.0449,0.0449,0,-0.0601,-0.0625,-0.0628,-0.0644,-0.0676,-0.0663,-0.0679,-0.0661,-0.0625,-0.0609,-0.0522,-0.0462,-0.0258,-0.0103,0.0054,0.0249,0.0296,0.0363,0.0421,0.0413,0.0409,0.0426,0.0421,0.0455,0.0454,0.0453,0.0452,0,-0.0649,-0.0649,-0.0686,-0.0694,-0.07,-0.0721,-0.0727,-0.0734,-0.0693,-0.0666,-0.0646,-0.0501,-0.0296,-0.0104,0.0167,0.0246,0.0433,0.0489,0.0445,0.049,0.0477,0.0468,0.0562,0.0562,0.0561,0.0561,0.0561,0,-0.0679,-0.0701,-0.0724,-0.0746,-0.0752,-0.0776,-0.079,-0.077,-0.077,-0.0681,-0.066,-0.0478,-0.0358,-0.0013,0.0209,0.0448,0.0474,0.0536,0.05,0.0439,0.0487,0.0478,0.0469,0.0562,0.0562,0.0562,0.0562,0,-0.073,-0.0732,-0.0752,-0.0797,-0.0823,-0.0853,-0.0865,-0.0874,-0.0834,-0.0794,-0.0696,-0.06,-0.0287,-0.0022,0.0255,0.0395,0.0486,0.0532,0.0537,0.0496,0.0441,0.0486,0.0478,0.0559,0.056,0.056,0.056,0.056,-0.0758,-0.0781,-0.0802,-0.0847,-0.0882,-0.0913,-0.0929,-0.0921,-0.0905,-0.0819,-0.0717,-0.0525,-0.0305,0.0113,0.0299,0.049,0.0494,0.0537,0.0539,0.054,0.0475,0.0418,0.0521,0.0521,0.0521,0.0521,0.0521,0,-0.0787,-0.0809,-0.0853,-0.0899,-0.0944,-0.095,-0.0968,-0.0958,-0.0924,-0.0795,-0.0685,-0.0418,-0.0143,0.0115,0.0401,0.0507,0.0524,0.0529,0.0545,0.0547,0.0548,0.0484,0.0533,0.0533,0.0533,0.0533,0,0,-0.0802,-0.0838,-0.0857,-0.0936,-0.0973,-0.1011,-0.1015,-0.0978,-0.0882,-0.0747,-0.0576,-0.0373,-0.0098,0.0099,0.0275,0.0422,0.0443,0.0429,0.0411,0.0412,0.0411,0.055,0.045,0,0,0,0,0]}],[{"header":{"parameterUnit":"m.s-1","parameterCategory":2,"la1":30.2991,"la2":30.254,"lo1":-89.0895,"lo2":-89.0444,"dy":0.0017,"dx":0.0017,"nx":28,"ny":28,"refTime":"2025-03-24T09:00:00:Z","depth":"4","parameterNumber":2,"parameterNumberName":"U-component_of_CURRENTS"},"data":[0,0,0,0,0,0,0,0,0,0,0,0,0,0,0,0,0,0,0,0,0,0,0,0,0,0,0,0,0,0,0,0,0,0,0,0,0,0,0,0,0,0,0,0,0,0,0,0,0,0,0,0,0,0,0,0,0,0,-0.0911,-0.0911,0,-0.0954,-0.0954,-0.0955,-0.0971,-0.0971,-0.0971,-0.0971,-0.1029,-0.1031,-0.1032,0,0,0,0,0,0,0,0,0,0,0,0,0,-0.0851,-0.0851,-0.0911,-0.0911,-0.0912,-0.0954,-0.0954,-0.0955,-0.0971,-0.0971,-0.0971,-0.0971,-0.1029,-0.1031,-0.1033,0,0,0,0,0,0,0,0,0,0,0,0,0,-0.0881,-0.0852,-0.0911,-0.0927,-0.0929,-0.0954,-0.0954,-0.0955,-0.0971,-0.0971,-0.0971,-0.0971,-0.1028,-0.1031,-0.1033,-0.1045,0,0,-0.104,-0.1041,0,0,0,0,0,0,0,0,-0.088,-0.0883,-0.0924,-0.0926,-0.0928,-0.0959,-0.0955,-0.0986,-0.0971,-0.0953,-0.0971,-0.0971,-0.1009,-0.1012,-0.1017,-0.1048,-0.105,-0.104,-0.1041,-0.1042,-0.1043,0,0,0,0,0,0,0,-0.0877,-0.0882,-0.0926,-0.0924,-0.0927,-0.0935,-0.0939,-0.0961,-0.0978,-0.0954,-0.0956,-0.0964,-0.101,-0.1015,-0.1019,-0.1051,-0.104,-0.1042,-0.1043,-0.1044,-0.1126,-0.1126,0,0,0,0,0,0,-0.0876,-0.088,-0.0924,-0.0927,-0.0906,-0.0936,-0.0941,-0.0947,-0.0978,-0.0983,-0.0964,-0.0965,-0.1011,-0.1016,-0.1021,-0.1078,-0.1042,-0.1044,-0.1046,-0.1125,-0.1126,-0.1127,0,0,0,0,0,0,-0.0875,-0.0879,-0.0923,-0.0906,-0.0912,-0.0937,-0.0944,-0.0948,-0.0971,-0.0985,-0.099,-0.0986,-0.1011,-0.1018,-0.1051,-0.1079,-0.1045,-0.1047,-0.1124,-0.1125,-0.1126,-0.1166,0,0,0,0,0,0,-0.0873,-0.0879,-0.0892,-0.0906,-0.0913,-0.0948,-0.0945,-0.0949,-0.0976,-0.0978,-0.1006,-0.101,-0.1012,-0.1047,-0.1053,-0.1081,-0.1049,-0.1123,-0.1124,-0.1126,-0.1163,-0.1168,-0.1172,0,0,0,0,0,-0.087,-0.0886,-0.0892,-0.0898,-0.0927,-0.0949,-0.0954,-0.097,-0.0977,-0.0991,-0.1007,-0.101,-0.1061,-0.105,-0.1056,-0.1086,-0.1122,-0.1124,-0.1126,-0.1161,-0.1167,-0.1172,0,0,0,0,0,0,-0.0869,-0.089,-0.0896,-0.0919,-0.0938,-0.0953,-0.0971,-0.0982,-0.1006,-0.1012,-0.1022,-0.1028,-0.1065,-0.1069,-0.1057,-0.1112,-0.1092,-0.1095,-0.1117,-0.1122,-0.1127,-0.1132,-0.1051,0,0,0,0,0,-0.0874,-0.0891,-0.091,-0.093,-0.0941,-0.096,-0.0975,-0.0986,-0.1005,-0.1016,-0.1035,-0.1055,-0.1075,-0.1094,-0.1108,-0.1144,-0.1139,-0.1166,-0.117,-0.1174,-0.1182,-0.1202,-0.1209,-0.1133,-0.1133,-0.1133,0,0,-0.0877,-0.0894,-0.0903,-0.0931,-0.0947,-0.0969,-0.0969,-0.0997,-0.1022,-0.102,-0.1063,-0.1072,-0.1086,-0.112,-0.1139,-0.1131,-0.1189,-0.1176,-0.1179,-0.1186,-0.1205,-0.1212,-0.1219,-0.1134,-0.1134,-0.1133,0,0,-0.0891,-0.0909,-0.0926,-0.0945,-0.0975,-0.0988,-0.1001,-0.1027,-0.1047,-0.1083,-0.1088,-0.1115,-0.1148,-0.1165,-0.1177,-0.1217,-0.1208,-0.1222,-0.1257,-0.1276,-0.1283,-0.1289,-0.1274,-0.1278,-0.1228,-0.1229,-0.1229,0,-0.0898,-0.0921,-0.0936,-0.0959,-0.098,-0.1,-0.1025,-0.1049,-0.1084,-0.1107,-0.1103,-0.1159,-0.1171,-0.1219,-0.1228,-0.123,-0.1225,-0.1236,-0.1283,-0.1288,-0.1294,-0.1277,-0.1281,-0.1231,-0.123,-0.123,-0.123,0,-0.0917,-0.0944,-0.0958,-0.0992,-0.1017,-0.1042,-0.1074,-0.1107,-0.1132,-0.1153,-0.1206,-0.122,-0.1253,-0.1262,-0.1259,-0.1307,-0.1284,-0.1282,-0.127,-0.1304,-0.1284,-0.1287,-0.1234,-0.1233,-0.1232,-0.1232,0,0,-0.0911,-0.0962,-0.0969,-0.0992,-0.1037,-0.1059,-0.1109,-0.1157,-0.1194,-0.1229,-0.1275,-0.1313,-0.132,-0.1334,-0.1339,-0.1358,-0.1382,-0.1339,-0.1339,-0.1324,-0.1401,-0.1295,-0.1288,-0.1389,-0.1391,-0.1392,-0.1365,0,-0.0924,-0.0969,-0.0995,-0.1044,-0.1068,-0.1107,-0.1151,-0.1199,-0.1236,-0.1283,-0.1316,-0.1353,-0.1349,-0.1364,-0.1388,-0.1385,-0.1396,-0.1388,-0.137,-0.1369,-0.1272,-0.1291,-0.1396,-0.1368,-0.1368,-0.1369,-0.1369,0,-0.0929,-0.0963,-0.101,-0.1072,-0.1088,-0.1124,-0.1198,-0.1238,-0.1306,-0.1335,-0.1383,-0.1399,-0.1443,-0.1425,-0.1452,-0.1446,-0.1429,-0.142,-0.1419,-0.1312,-0.1271,-0.1331,-0.1376,-0.1375,-0.1375,-0.1374,-0.1374,0,-0.0907,-0.0971,-0.1012,-0.1032,-0.1104,-0.1144,-0.1187,-0.1256,-0.129,-0.1365,-0.1387,-0.1446,-0.1461,-0.1477,-0.1458,-0.146,-0.1464,-0.1463,-0.1351,-0.1342,-0.1428,-0.1423,-0.1478,-0.1479,-0.1479,-0.1479,-0.1479,0,-0.0901,-0.0936,-0.1009,-0.1031,-0.1083,-0.1139,-0.1199,-0.125,-0.1315,-0.1344,-0.1407,-0.1424,-0.1474,-0.1478,-0.147,-0.141,-0.1474,-0.1356,-0.1335,-0.1441,-0.1438,-0.1429,-0.1424,-0.1478,-0.1478,-0.1478,-0.1478,0,-0.0866,-0.0914,-0.0963,-0.1046,-0.1073,-0.1109,-0.119,-0.1225,-0.1294,-0.1331,-0.1351,-0.1409,-0.1412,-0.1435,-0.1442,-0.1397,-0.137,-0.133,-0.1422,-0.1406,-0.1231,-0.1228,-0.1209,-0.1205,-0.1202,-0.1199,-0.1197,0,-0.0853,-0.0874,-0.0959,-0.0982,-0.1022,-0.1084,-0.1119,-0.1203,-0.1227,-0.1302,-0.1301,-0.1335,-0.136,-0.1283,-0.1324,-0.1297,-0.1281,-0.1249,-0.1264,-0.1225,-0.1207,-0.1209,-0.1211,-0.1192,-0.1191,-0.119,-0.1189,0,-0.0821,-0.0856,-0.0895,-0.0938,-0.098,-0.1022,-0.1075,-0.1083,-0.1163,-0.1232,-0.1218,-0.1215,-0.1209,-0.1213,-0.119,-0.1177,-0.1268,-0.1215,-0.1222,-0.1236,-0.1204,-0.119,-0.1195,-0.1178,-0.118,-0.1181,-0.1181,0,-0.0794,-0.0808,-0.0854,-0.0883,-0.0929,-0.0941,-0.0983,-0.1003,-0.1035,-0.1112,-0.1101,-0.1142,-0.1192,-0.1148,-0.1134,-0.1107,-0.1097,-0.1059,-0.1074,-0.1087,-0.106,-0.1002,-0.0895,0,0,0,0,0,-0.0762,-0.0768,-0.0792,-0.0821,-0.0859,-0.0882,-0.0942,-0.0982,-0.1052,-0.1009,-0.1052,-0.1044,-0.1023,-0.1046,-0.0993,-0.1082,-0.1104,-0.1015,-0.107,-0.1116,-0.1129,-0.1109,0,0,0,0,0,0,-0.0739,-0.0765,-0.077,-0.0754,-0.0758,-0.0791,-0.0825,-0.0874,-0.0856,-0.0928,-0.0923,-0.0971,-0.0971,-0.1038,-0.097,-0.0975,-0.0984,-0.1042,-0.1039,-0.1109,-0.112,-0.1131,-0.1115,0,0,0,0,0]},{"header":{"parameterUnit":"m.s-1","parameterCategory":2,"la1":30.2991,"la2":30.254,"lo1":-89.0895,"lo2":-89.0444,"dy":0.0017,"dx":0.0017,"nx":28,"ny":28,"refTime":"2025-03-24T09:00:00:Z","depth":"4","parameterNumber":3,"parameterNumberName":"V-component_of_CURRENTS"},"data":[0,0,0,0,0,0,0,0,0,0,0,0,0,0,0,0,0,0,0,0,0,0,0,0,0,0,0,0,0,0,0,0,0,0,0,0,0,0,0,0,0,0,0,0,0,0,0,0,0,0,0,0,0,0,0,0,0,0,-0.0269,-0.0268,0,-0.0247,-0.0246,-0.0246,-0.0228,-0.0228,-0.0227,-0.0227,-0.0186,-0.0185,-0.0184,0,0,0,0,0,0,0,0,0,0,0,0,0,-0.0272,-0.0272,-0.0269,-0.0268,-0.0268,-0.0247,-0.0246,-0.0246,-0.0228,-0.0228,-0.0227,-0.0227,-0.0186,-0.0185,-0.0184,0,0,0,0,0,0,0,0,0,0,0,0,0,-0.0263,-0.0272,-0.0269,-0.0256,-0.0255,-0.0247,-0.0246,-0.0246,-0.0228,-0.0228,-0.0227,-0.0227,-0.0187,-0.0185,-0.0184,-0.0183,0,0,-0.018,-0.018,0,0,0,0,0,0,0,0,-0.0263,-0.0263,-0.0258,-0.0257,-0.0255,-0.0239,-0.0232,-0.0224,-0.0228,-0.0239,-0.0227,-0.0227,-0.0202,-0.0199,-0.0197,-0.0182,-0.018,-0.018,-0.0179,-0.0179,-0.0178,0,0,0,0,0,0,0,-0.0264,-0.0264,-0.026,-0.0258,-0.0256,-0.0243,-0.0242,-0.0231,-0.0223,-0.0238,-0.0236,-0.0233,-0.0201,-0.0198,-0.0196,-0.0179,-0.018,-0.0179,-0.0178,-0.0178,-0.0164,-0.0165,0,0,0,0,0,0,-0.0267,-0.0264,-0.0261,-0.026,-0.0258,-0.0244,-0.0242,-0.0245,-0.0223,-0.0219,-0.0233,-0.0232,-0.0201,-0.0197,-0.0194,-0.0192,-0.0179,-0.0177,-0.0177,-0.0164,-0.0164,-0.0165,0,0,0,0,0,0,-0.0268,-0.0268,-0.0262,-0.0261,-0.0259,-0.0244,-0.0248,-0.0245,-0.0244,-0.022,-0.0216,-0.0235,-0.02,-0.0196,-0.019,-0.0191,-0.0177,-0.0176,-0.0163,-0.0164,-0.0165,-0.0188,0,0,0,0,0,0,-0.0268,-0.0268,-0.0275,-0.0261,-0.0259,-0.0264,-0.0248,-0.0245,-0.0242,-0.024,-0.022,-0.0216,-0.02,-0.0192,-0.0189,-0.0189,-0.0175,-0.0163,-0.0164,-0.0164,-0.0187,-0.019,-0.0192,0,0,0,0,0,-0.0268,-0.028,-0.0275,-0.0275,-0.0268,-0.0265,-0.0263,-0.0251,-0.0242,-0.0247,-0.0233,-0.0216,-0.0195,-0.0192,-0.0188,-0.0187,-0.0162,-0.0163,-0.0164,-0.0186,-0.0189,-0.0192,0,0,0,0,0,0,-0.0287,-0.0278,-0.0273,-0.0282,-0.0277,-0.0262,-0.0265,-0.0255,-0.0248,-0.0247,-0.0223,-0.0218,-0.0214,-0.02,-0.0197,-0.0187,-0.0176,-0.0176,-0.0193,-0.0196,-0.0199,-0.0196,-0.0174,0,0,0,0,0,-0.0294,-0.03,-0.0288,-0.0297,-0.0295,-0.0281,-0.0278,-0.0271,-0.026,-0.0257,-0.0242,-0.0227,-0.0215,-0.0206,-0.0197,-0.019,-0.0158,-0.0187,-0.019,-0.0192,-0.0188,-0.0139,-0.0136,-0.0168,-0.0168,-0.0168,0,0,-0.0305,-0.03,-0.0304,-0.0301,-0.0295,-0.0298,-0.0279,-0.028,-0.0281,-0.0254,-0.0253,-0.0238,-0.0217,-0.0212,-0.0208,-0.0198,-0.0167,-0.0193,-0.0195,-0.019,-0.0139,-0.0136,-0.0133,-0.0169,-0.0169,-0.0168,0,0,-0.0326,-0.0325,-0.0334,-0.0332,-0.0325,-0.0316,-0.0318,-0.0306,-0.03,-0.0299,-0.0277,-0.026,-0.025,-0.0226,-0.0214,-0.0224,-0.0187,-0.0227,-0.023,-0.0183,-0.0179,-0.0176,-0.0134,-0.0126,-0.0223,-0.0223,-0.0223,0,-0.0339,-0.0349,-0.0337,-0.0344,-0.0345,-0.0326,-0.0336,-0.0328,-0.0316,-0.0309,-0.0305,-0.0273,-0.0253,-0.0229,-0.0232,-0.0227,-0.0198,-0.022,-0.0184,-0.018,-0.0176,-0.0134,-0.0125,-0.0224,-0.0224,-0.0224,-0.0224,0,-0.0362,-0.0372,-0.0378,-0.038,-0.0381,-0.0388,-0.0373,-0.0372,-0.0361,-0.0346,-0.0329,-0.0298,-0.0275,-0.0266,-0.0251,-0.0216,-0.0204,-0.0197,-0.0174,-0.0174,-0.013,-0.012,-0.0226,-0.0225,-0.0225,-0.0225,0,0,-0.0383,-0.0393,-0.0396,-0.0406,-0.0401,-0.0406,-0.0406,-0.0398,-0.0397,-0.0374,-0.0363,-0.0328,-0.0304,-0.0288,-0.026,-0.0214,-0.0159,-0.0195,-0.0192,-0.0148,-0.0055,-0.0058,-0.0048,-0.0144,-0.0142,-0.0141,-0.0037,0,-0.0405,-0.0429,-0.0425,-0.0451,-0.0462,-0.0449,-0.0453,-0.0442,-0.0427,-0.0413,-0.0362,-0.0346,-0.0314,-0.0303,-0.025,-0.0187,-0.0135,-0.0188,-0.0066,-0.0062,-0.006,-0.0037,-0.0136,-0.003,-0.0027,-0.0026,-0.0024,0,-0.0425,-0.0439,-0.0469,-0.0489,-0.0493,-0.0505,-0.0508,-0.0508,-0.0475,-0.0462,-0.0422,-0.0387,-0.0318,-0.0296,-0.0165,-0.0202,-0.013,-0.0074,-0.0068,-0.0054,-0.0047,-0.0028,-0.0007,-0.0008,-0.0009,-0.0011,-0.0012,0,-0.0443,-0.047,-0.0497,-0.0504,-0.052,-0.0533,-0.0539,-0.0524,-0.0525,-0.0489,-0.0482,-0.04,-0.0361,-0.0256,-0.0143,-0.0151,0.0002,0.0006,0.0076,0.0077,0.0058,0.0054,0.0106,0.0106,0.0106,0.0106,0.0105,0,-0.0462,-0.0486,-0.0512,-0.0529,-0.0564,-0.0563,-0.0588,-0.0582,-0.0568,-0.0565,-0.0508,-0.0481,-0.0349,-0.0253,-0.0144,-0.0004,0.0007,0.0086,0.0108,0.0044,0.0036,0.0065,0.0059,0.0109,0.0109,0.0108,0.0107,0,-0.0477,-0.0493,-0.053,-0.0561,-0.0576,-0.06,-0.0628,-0.0639,-0.0625,-0.0617,-0.0607,-0.0528,-0.0398,-0.0262,-0.0089,-0.0012,0.0123,0.017,0.0091,0.0105,0.0168,0.0159,0.0264,0.0265,0.0266,0.0266,0.0267,0,-0.0486,-0.0507,-0.0557,-0.0586,-0.0605,-0.0641,-0.0664,-0.0666,-0.0673,-0.0641,-0.0633,-0.0526,-0.0453,-0.0208,-0.007,0.0142,0.0165,0.0225,0.0202,0.0175,0.0187,0.0177,0.0167,0.0268,0.0268,0.0268,0.0268,0,-0.0505,-0.0525,-0.0555,-0.0613,-0.0652,-0.0689,-0.0718,-0.0725,-0.0716,-0.0708,-0.0636,-0.0521,-0.0376,-0.0198,-0.0038,0.011,0.018,0.0234,0.0233,0.0212,0.0182,0.019,0.018,0.0271,0.0271,0.027,0.027,0,-0.0518,-0.0544,-0.0587,-0.0633,-0.0688,-0.072,-0.0732,-0.0726,-0.0725,-0.0683,-0.0656,-0.0509,-0.0424,-0.0213,-0.0064,0.008,0.0114,0.0145,0.015,0.0148,0.0077,0.0019,0.0088,0,0,0,0,0,-0.0527,-0.0555,-0.0605,-0.0657,-0.071,-0.0736,-0.0763,-0.0764,-0.0754,-0.0702,-0.0676,-0.0537,-0.0319,-0.023,-0.0081,-0.0052,0.0133,0.0124,0.0169,0.0286,0.0282,0.0217,0,0,0,0,0,0,-0.0534,-0.058,-0.0602,-0.0667,-0.0705,-0.0757,-0.0772,-0.0763,-0.0723,-0.0696,-0.0572,-0.0518,-0.0296,-0.04,-0.0083,-0.0042,0.0002,0.0226,0.0229,0.0287,0.0284,0.0282,0.0214,0,0,0,0,0]}]]